カタログに戻る

SL-16 DEB

運用中LEO
NORAD 42239·DEBRIS·🇷🇺 Russia

打ち上げ Mar 26, 1993 から Baikonur Cosmodrome

Loading…

次のパス (今後24時間)

TLE

最新Source: Space-Track

元期: Sep 12, 2026, 16:50 UTC

1 42239U 93016CT  26255.70171146  .00007969  00000-0  20073-2 0  9991
2 42239  71.1190  24.8480 0079152  86.3138 274.7051 14.49513310947197

AllMySatでSL-16 DEBをリアルタイム追跡

Download on the App Store